UAL3929 KLAX-KSFO

Flight info

Callsign UAL3929
Flight time 0h 55m
Altitude 38000
Route SUMMR2 STOKD SERFR SERFR4
Aircraft B77W/H-SDE1E2E3FGHIJ2J3J4J5M1RWXY/LB1D1

Departure

Time 2026-04-22 02:57
Airport Los Angeles International Airport (KLAX)

Arrival

Time 2026-04-22 03:53
Airport San Francisco International Airport (KSFO)
Time Latitude Longitude Altitude Speed Heading
2026-04-22 02:32 33.94030 -118.39989 97 ft 0 kts 49°
2026-04-22 02:48 33.94018 -118.40005 98 ft 4 kts 42°
2026-04-22 02:49 33.93997 -118.40024 98 ft 4 kts 31°
2026-04-22 02:49 33.93973 -118.40041 98 ft 4 kts 37°
2026-04-22 02:49 33.93960 -118.40059 98 ft 1 kts 90°
2026-04-22 02:49 33.93960 -118.40060 98 ft 0 kts 90°
2026-04-22 02:52 33.93960 -118.40055 98 ft 3 kts 90°
2026-04-22 02:52 33.93965 -118.39970 98 ft 15 kts 84°
2026-04-22 02:52 33.93967 -118.39845 100 ft 15 kts 119°
2026-04-22 02:52 33.93915 -118.39734 100 ft 16 kts 98°
2026-04-22 02:53 33.93920 -118.39603 100 ft 16 kts 82°
2026-04-22 02:53 33.93935 -118.39472 101 ft 16 kts 82°
2026-04-22 02:53 33.93948 -118.39338 98 ft 17 kts 84°
2026-04-22 02:53 33.93961 -118.39194 100 ft 18 kts 82°
2026-04-22 02:54 33.93978 -118.39050 99 ft 18 kts 82°
2026-04-22 02:54 33.93993 -118.38904 99 ft 18 kts 85°
2026-04-22 02:54 33.94005 -118.38757 99 ft 18 kts 83°
2026-04-22 02:54 33.94022 -118.38612 100 ft 18 kts 82°
2026-04-22 02:55 33.94038 -118.38466 103 ft 17 kts 82°
2026-04-22 02:55 33.94044 -118.38386 100 ft 4 kts 91°
2026-04-22 02:55 33.94044 -118.38384 100 ft 0 kts 92°
2026-04-22 02:55 33.94042 -118.38368 101 ft 11 kts 103°
2026-04-22 02:56 33.93969 -118.38327 104 ft 12 kts 210°
2026-04-22 02:56 33.93949 -118.38371 106 ft 0 kts 262°
2026-04-22 02:57 33.93944 -118.38409 106 ft 26 kts 262°
2026-04-22 02:57 33.93883 -118.39022 103 ft 119 kts 263°
2026-04-22 02:57 33.93755 -118.40297 256 ft 173 kts 263°
2026-04-22 02:57 33.93620 -118.41717 1271 ft 170 kts 265°
2026-04-22 02:58 33.93478 -118.43113 2236 ft 167 kts 263°
2026-04-22 02:58 33.93313 -118.44542 2894 ft 185 kts 264°
2026-04-22 02:58 33.93154 -118.46237 3086 ft 223 kts 265°
2026-04-22 02:58 33.92994 -118.48136 3920 ft 231 kts 264°
2026-04-22 02:59 33.92830 -118.50100 4664 ft 236 kts 264°
2026-04-22 02:59 33.92667 -118.52071 5466 ft 237 kts 264°
2026-04-22 02:59 33.92502 -118.54072 6278 ft 251 kts 264°
2026-04-22 02:59 33.92327 -118.56187 7188 ft 256 kts 263°
2026-04-22 03:00 33.92150 -118.58332 8217 ft 258 kts 263°
2026-04-22 03:00 33.91971 -118.60480 9328 ft 258 kts 262°
2026-04-22 03:00 33.91794 -118.62628 10380 ft 260 kts 263°
2026-04-22 03:00 33.91707 -118.64885 10888 ft 284 kts 266°
2026-04-22 03:01 33.91703 -118.67400 11205 ft 314 kts 268°
2026-04-22 03:01 33.91717 -118.70070 11885 ft 323 kts 268°
2026-04-22 03:01 33.91727 -118.72788 11998 ft 326 kts 268°
2026-04-22 03:01 33.91727 -118.75475 11999 ft 324 kts 268°
2026-04-22 03:02 33.91720 -118.78180 11996 ft 323 kts 268°
2026-04-22 03:02 33.91708 -118.80878 11995 ft 322 kts 268°
2026-04-22 03:02 33.91696 -118.83577 12000 ft 323 kts 268°
2026-04-22 03:02 33.91753 -118.86294 12693 ft 327 kts 270°
2026-04-22 03:03 33.91849 -118.89025 14061 ft 326 kts 270°
2026-04-22 03:03 33.91943 -118.91755 15263 ft 328 kts 270°
2026-04-22 03:03 33.92030 -118.94518 16366 ft 333 kts 270°
2026-04-22 03:03 33.92111 -118.97290 17438 ft 339 kts 270°
2026-04-22 03:04 33.92238 -119.00135 18426 ft 344 kts 275°
2026-04-22 03:04 33.92914 -119.02953 19219 ft 359 kts 290°
2026-04-22 03:04 33.94162 -119.05586 20259 ft 364 kts 297°
2026-04-22 03:04 33.95535 -119.08158 21300 ft 367 kts 297°
2026-04-22 03:05 33.96917 -119.10758 22271 ft 371 kts 297°
2026-04-22 03:05 33.98298 -119.13402 23205 ft 375 kts 296°
2026-04-22 03:05 33.99687 -119.16090 24059 ft 380 kts 296°
2026-04-22 03:05 34.01207 -119.18667 24759 ft 391 kts 306°
2026-04-22 03:06 34.03319 -119.20821 25495 ft 404 kts 317°
2026-04-22 03:06 34.05643 -119.22767 26192 ft 409 kts 317°
2026-04-22 03:06 34.07995 -119.24735 26918 ft 413 kts 317°
2026-04-22 03:06 34.10360 -119.26728 27684 ft 416 kts 317°
2026-04-22 03:07 34.12731 -119.28741 28420 ft 419 kts 317°
2026-04-22 03:07 34.15121 -119.30786 29085 ft 423 kts 317°
2026-04-22 03:07 34.17533 -119.32861 29719 ft 428 kts 317°
2026-04-22 03:07 34.19967 -119.34959 30312 ft 432 kts 317°
2026-04-22 03:08 34.22392 -119.37052 30861 ft 435 kts 317°
2026-04-22 03:08 34.24865 -119.39186 31362 ft 438 kts 317°
2026-04-22 03:08 34.27354 -119.41337 31833 ft 441 kts 317°
2026-04-22 03:08 34.29852 -119.43496 32385 ft 441 kts 317°
2026-04-22 03:09 34.32347 -119.45652 33027 ft 439 kts 317°
2026-04-22 03:09 34.34826 -119.47797 33686 ft 437 kts 317°
2026-04-22 03:09 34.37296 -119.49937 34260 ft 436 kts 317°
2026-04-22 03:09 34.39761 -119.52076 34763 ft 436 kts 317°
2026-04-22 03:10 34.42124 -119.54261 35226 ft 429 kts 311°
2026-04-22 03:10 34.44267 -119.56740 35716 ft 424 kts 308°
2026-04-22 03:10 34.46311 -119.59303 36169 ft 423 kts 307°
2026-04-22 03:10 34.48335 -119.61899 36560 ft 423 kts 307°
2026-04-22 03:11 34.50359 -119.64485 36974 ft 423 kts 307°
2026-04-22 03:11 34.52393 -119.67058 37444 ft 422 kts 307°
2026-04-22 03:11 34.54430 -119.69606 37944 ft 419 kts 307°
2026-04-22 03:11 34.56473 -119.72149 38095 ft 424 kts 307°
2026-04-22 03:12 34.58516 -119.74681 38118 ft 426 kts 307°
2026-04-22 03:12 34.64706 -119.82309 38113 ft 419 kts 307°
2026-04-22 03:13 34.68792 -119.87370 38120 ft 420 kts 307°
2026-04-22 03:13 34.72868 -119.92447 38104 ft 420 kts 307°
2026-04-22 03:14 34.76920 -119.97475 38115 ft 419 kts 308°
2026-04-22 03:14 34.80988 -120.02516 38136 ft 417 kts 307°
2026-04-22 03:15 34.85050 -120.07576 38128 ft 419 kts 307°
2026-04-22 03:15 34.89120 -120.12659 38120 ft 419 kts 307°
2026-04-22 03:16 34.93161 -120.17719 38132 ft 419 kts 308°
2026-04-22 03:16 34.97228 -120.22797 38127 ft 418 kts 308°
2026-04-22 03:17 35.01281 -120.27877 38136 ft 418 kts 307°
2026-04-22 03:17 35.05329 -120.32961 38128 ft 417 kts 307°
2026-04-22 03:18 35.09357 -120.38001 38133 ft 419 kts 309°
2026-04-22 03:18 35.13634 -120.42856 38135 ft 420 kts 311°
2026-04-22 03:19 35.17969 -120.47617 38133 ft 418 kts 311°
2026-04-22 03:19 35.22255 -120.52381 38136 ft 415 kts 310°
2026-04-22 03:20 35.26521 -120.57176 38127 ft 418 kts 310°
2026-04-22 03:20 35.30782 -120.61976 38123 ft 420 kts 310°
2026-04-22 03:21 35.35086 -120.66829 38114 ft 421 kts 310°
2026-04-22 03:21 35.39396 -120.71691 38130 ft 421 kts 310°
2026-04-22 03:22 35.43713 -120.76573 38128 ft 423 kts 310°
2026-04-22 03:22 35.48006 -120.81432 38143 ft 423 kts 310°
2026-04-22 03:23 35.52609 -120.86007 38143 ft 428 kts 315°
2026-04-22 03:23 35.57412 -120.90341 38176 ft 428 kts 316°
2026-04-22 03:24 35.62197 -120.94699 38143 ft 427 kts 315°
2026-04-22 03:24 35.66905 -120.99058 38128 ft 426 kts 315°
2026-04-22 03:25 35.71620 -121.03457 38120 ft 425 kts 315°
2026-04-22 03:25 35.76300 -121.07828 37939 ft 417 kts 315°
2026-04-22 03:26 35.78615 -121.09994 37371 ft 416 kts 315°
2026-04-22 03:26 35.80904 -121.12134 36895 ft 411 kts 315°
2026-04-22 03:26 35.83167 -121.14253 36438 ft 407 kts 314°
2026-04-22 03:26 35.85379 -121.16326 35999 ft 403 kts 314°
2026-04-22 03:27 35.87598 -121.18407 35518 ft 399 kts 314°
2026-04-22 03:27 35.89797 -121.20473 35065 ft 396 kts 314°
2026-04-22 03:27 35.91976 -121.22522 34640 ft 393 kts 314°
2026-04-22 03:27 35.94148 -121.24566 34135 ft 390 kts 314°
2026-04-22 03:28 35.96293 -121.26585 33628 ft 387 kts 314°
2026-04-22 03:28 35.98425 -121.28593 33142 ft 384 kts 314°
2026-04-22 03:28 36.00535 -121.30581 32678 ft 380 kts 314°
2026-04-22 03:28 36.02594 -121.32524 32236 ft 376 kts 314°
2026-04-22 03:29 36.04662 -121.34475 31806 ft 372 kts 314°
2026-04-22 03:29 36.06710 -121.36410 31328 ft 369 kts 314°
2026-04-22 03:29 36.08809 -121.38238 30964 ft 369 kts 317°
2026-04-22 03:29 36.10982 -121.39925 30520 ft 368 kts 318°
2026-04-22 03:30 36.13160 -121.41567 30066 ft 364 kts 318°
2026-04-22 03:30 36.15314 -121.43194 29583 ft 362 kts 318°
2026-04-22 03:30 36.17447 -121.44817 29104 ft 358 kts 318°
2026-04-22 03:30 36.19551 -121.46427 28680 ft 353 kts 318°
2026-04-22 03:31 36.21622 -121.48031 28271 ft 350 kts 317°
2026-04-22 03:31 36.23645 -121.49604 27842 ft 347 kts 317°
2026-04-22 03:31 36.25678 -121.51193 27421 ft 344 kts 317°
2026-04-22 03:31 36.27699 -121.52771 27001 ft 342 kts 317°
2026-04-22 03:32 36.29699 -121.54341 26585 ft 339 kts 317°
2026-04-22 03:32 36.31680 -121.55890 26209 ft 335 kts 317°
2026-04-22 03:32 36.33640 -121.57428 25806 ft 332 kts 318°
2026-04-22 03:32 36.35582 -121.58945 25417 ft 328 kts 317°
2026-04-22 03:33 36.37502 -121.60453 25049 ft 326 kts 317°
2026-04-22 03:33 36.39412 -121.61952 24636 ft 324 kts 317°
2026-04-22 03:33 36.41313 -121.63448 24268 ft 323 kts 317°
2026-04-22 03:33 36.43180 -121.64917 23918 ft 322 kts 317°
2026-04-22 03:34 36.45069 -121.66404 23458 ft 321 kts 317°
2026-04-22 03:34 36.46943 -121.67878 23039 ft 318 kts 317°
2026-04-22 03:34 36.48805 -121.69340 22638 ft 315 kts 317°
2026-04-22 03:34 36.50651 -121.70793 22224 ft 313 kts 317°
2026-04-22 03:35 36.52465 -121.72232 21872 ft 306 kts 317°
2026-04-22 03:35 36.53653 -121.73169 21632 ft 304 kts 317°
2026-04-22 03:35 36.56037 -121.75043 21134 ft 301 kts 317°
2026-04-22 03:35 36.57207 -121.75967 20875 ft 300 kts 317°
2026-04-22 03:36 36.58961 -121.77356 20504 ft 298 kts 317°
2026-04-22 03:36 36.61270 -121.79187 20046 ft 297 kts 317°
2026-04-22 03:36 36.63005 -121.80564 19687 ft 295 kts 317°
2026-04-22 03:36 36.64736 -121.81939 19327 ft 295 kts 317°
2026-04-22 03:37 36.66463 -121.83310 18961 ft 294 kts 317°
2026-04-22 03:37 36.67604 -121.84216 18721 ft 293 kts 317°
2026-04-22 03:37 36.69323 -121.85581 18362 ft 293 kts 318°
2026-04-22 03:37 36.71037 -121.86943 17934 ft 292 kts 318°
2026-04-22 03:38 36.72745 -121.88300 17571 ft 290 kts 318°
2026-04-22 03:38 36.74512 -121.89526 17200 ft 296 kts 329°
2026-04-22 03:38 36.77204 -121.90371 16752 ft 302 kts 339°
2026-04-22 03:38 36.78595 -121.90736 16472 ft 303 kts 339°
2026-04-22 03:39 36.80659 -121.91281 16087 ft 303 kts 339°
2026-04-22 03:39 36.82693 -121.91827 15717 ft 303 kts 339°
2026-04-22 03:39 36.84752 -121.92389 15344 ft 303 kts 340°
2026-04-22 03:39 36.86812 -121.92958 14983 ft 303 kts 340°
2026-04-22 03:40 36.88871 -121.93530 14628 ft 303 kts 340°
2026-04-22 03:40 36.90927 -121.94104 14272 ft 303 kts 341°
2026-04-22 03:40 36.92986 -121.94681 13902 ft 304 kts 341°
2026-04-22 03:40 36.95050 -121.95260 13503 ft 304 kts 341°
2026-04-22 03:41 36.97079 -121.95954 13111 ft 302 kts 338°
2026-04-22 03:41 36.99080 -121.96740 12765 ft 301 kts 337°
2026-04-22 03:41 37.01045 -121.97531 12397 ft 301 kts 337°
2026-04-22 03:41 37.03040 -121.98331 12038 ft 301 kts 337°
2026-04-22 03:42 37.05036 -121.99125 11667 ft 301 kts 338°
2026-04-22 03:42 37.07029 -121.99911 11321 ft 300 kts 338°
2026-04-22 03:42 37.09025 -122.00694 10965 ft 301 kts 338°
2026-04-22 03:42 37.11025 -122.01479 10604 ft 301 kts 338°
2026-04-22 03:43 37.13027 -122.02264 10246 ft 302 kts 338°
2026-04-22 03:43 37.15008 -122.03038 10130 ft 294 kts 338°
2026-04-22 03:43 37.16949 -122.03797 9899 ft 291 kts 338°
2026-04-22 03:43 37.18829 -122.04531 9559 ft 277 kts 338°
2026-04-22 03:44 37.20610 -122.05229 9206 ft 269 kts 338°
2026-04-22 03:44 37.22397 -122.05935 8869 ft 269 kts 339°
2026-04-22 03:44 37.24180 -122.06633 8547 ft 268 kts 338°
2026-04-22 03:44 37.25954 -122.07332 8221 ft 266 kts 338°
2026-04-22 03:45 37.27716 -122.08022 7919 ft 265 kts 338°
2026-04-22 03:45 37.29476 -122.08713 7549 ft 265 kts 339°
2026-04-22 03:45 37.31227 -122.09403 7243 ft 265 kts 338°
2026-04-22 03:45 37.32995 -122.10098 6887 ft 264 kts 339°
2026-04-22 03:46 37.34696 -122.10768 6538 ft 255 kts 338°
2026-04-22 03:46 37.36368 -122.11428 6192 ft 251 kts 338°
2026-04-22 03:46 37.38044 -122.12081 6085 ft 255 kts 340°
2026-04-22 03:46 37.39800 -122.12693 5623 ft 269 kts 341°
2026-04-22 03:47 37.41611 -122.13303 5224 ft 265 kts 341°
2026-04-22 03:47 37.43351 -122.13889 4895 ft 253 kts 341°
2026-04-22 03:47 37.45017 -122.14455 4560 ft 244 kts 341°
2026-04-22 03:47 37.46674 -122.15024 4328 ft 248 kts 340°
2026-04-22 03:48 37.48335 -122.15595 4066 ft 246 kts 341°
2026-04-22 03:48 37.49983 -122.16161 3787 ft 245 kts 341°
2026-04-22 03:48 37.51575 -122.16707 3463 ft 235 kts 341°
2026-04-22 03:48 37.53004 -122.17491 3138 ft 215 kts 316°
2026-04-22 03:49 37.53885 -122.18900 2851 ft 198 kts 300°
2026-04-22 03:49 37.54613 -122.20309 2573 ft 186 kts 298°
2026-04-22 03:49 37.55229 -122.21672 2339 ft 171 kts 296°
2026-04-22 03:49 37.55769 -122.22943 2134 ft 161 kts 295°
2026-04-22 03:50 37.56292 -122.24193 1977 ft 159 kts 295°
2026-04-22 03:50 37.56788 -122.25372 1750 ft 144 kts 293°
2026-04-22 03:50 37.57233 -122.26432 1659 ft 132 kts 293°
2026-04-22 03:50 37.57661 -122.27455 1559 ft 134 kts 293°
2026-04-22 03:51 37.58096 -122.28496 1368 ft 133 kts 293°
2026-04-22 03:51 37.58520 -122.29510 1166 ft 133 kts 295°
2026-04-22 03:51 37.58955 -122.30545 996 ft 133 kts 295°
2026-04-22 03:51 37.59387 -122.31586 732 ft 136 kts 294°
2026-04-22 03:52 37.59803 -122.32648 562 ft 132 kts 295°
2026-04-22 03:52 37.60243 -122.33654 459 ft 130 kts 295°
2026-04-22 03:52 37.60676 -122.34651 289 ft 129 kts 294°
2026-04-22 03:52 37.61096 -122.35668 125 ft 132 kts 295°
2026-04-22 03:53 37.61527 -122.36690 41 ft 125 kts 295°
2026-04-22 03:53 37.61870 -122.37539 27 ft 89 kts 297°
2026-04-22 03:53 37.61977 -122.37900 27 ft 9 kts 246°
2026-04-22 03:53 37.61968 -122.37919 27 ft 0 kts 239°
2026-04-22 03:54 37.61967 -122.37921 27 ft 0 kts 239°
2026-04-22 03:54 37.61959 -122.37936 27 ft 11 kts 236°
2026-04-22 03:54 37.61912 -122.38064 27 ft 18 kts 279°
2026-04-22 03:54 37.61953 -122.38178 27 ft 0 kts 296°
2026-04-22 03:55 37.61293 -122.38869 27 ft 0 kts 299°